[[{"header":{"parameterUnit":"m.s-1","parameterCategory":2,"la1":30.2992,"la2":30.254,"lo1":-89.0895,"lo2":-89.0443,"dy":0.0025,"dx":0.0025,"nx":19,"ny":19,"refTime":"2026-05-18T21:00:00:Z","depth":"0","parameterNumber":2,"parameterNumberName":"U-component_of_CURRENTS"},"data":[0,0,0,0.0316,0.0316,0.0331,0.0331,0.0359,0.036,0,0,0,0,0,0,0,0,0,0,0,0.0307,0.0307,0.0316,0.0316,0.0331,0.0331,0.0359,0.036,0,0,0,0,0,0,0,0,0,0,0,0.0307,0.0307,0.0307,0.0316,0.0331,0.0331,0.0359,0.0347,0,0,0,0,0,0,0,0,0,0,0.0333,0.0317,0.0307,0.0307,0.0316,0.0331,0.0331,0.0347,0.0348,0.0354,0,0.0348,0,0.0354,0.0361,0.0361,0,0,0,0.0323,0.0316,0.0323,0.0306,0.0316,0.0331,0.0326,0.0348,0.0349,0.0356,0.0348,0.0349,0.0354,0.0361,0.0361,0.0341,0.0341,0,0,0.0322,0.031,0.0321,0.0323,0.0309,0.0325,0.0326,0.0348,0.0344,0.0348,0.035,0.0354,0.0362,0.0362,0.0341,0.0341,0,0,0,0.0315,0.0309,0.0315,0.0322,0.0323,0.0326,0.0327,0.0343,0.0345,0.035,0.0355,0.0362,0.0362,0.0342,0.0341,0.0322,0,0,0,0.0315,0.0305,0.0314,0.0307,0.0322,0.0331,0.0321,0.0344,0.0347,0.0355,0.0362,0.0362,0.0342,0.0341,0.0324,0.0396,0,0,0,0.0308,0.0304,0.0303,0.0307,0.0311,0.0331,0.0335,0.0345,0.0349,0.0361,0.0362,0.0342,0.0342,0.0325,0.0396,0.0611,0,0,0,0.03,0.0262,0.0302,0.0262,0.0311,0.0291,0.0335,0.033,0.0335,0.0362,0.0342,0.0341,0.0325,0.0395,0.0607,0.0858,0.0897,0,0,0.0241,0.0254,0.023,0.0266,0.024,0.029,0.0268,0.0302,0.0324,0.0338,0.0338,0.0323,0.0395,0.061,0.0802,0.0844,0,0,0,0.0204,0.0194,0.0189,0.019,0.0196,0.0238,0.0257,0.0269,0.0293,0.0322,0.0309,0.0357,0.0494,0.0634,0.0665,0.0847,0.0337,0.0337,0.0337,0.0136,0.0147,0.0131,0.0153,0.0152,0.0194,0.0226,0.0254,0.0251,0.0255,0.0326,0.0462,0.0601,0.063,0.0808,0.0267,0.0267,0.0267,0.0267,0.0106,0.0129,0.0135,0.0132,0.0175,0.018,0.0225,0.0244,0.0371,0.0291,0.0425,0.0586,0.0666,0.0842,0.0266,0.0266,0.0266,0.0266,0.0266,0.013,0.0148,0.0145,0.0174,0.0211,0.0241,0.0396,0.0409,0.0434,0.0513,0.0836,0.0839,0.1028,0.0639,0.064,0.0642,0.0643,0.0643,0.0644,0.0193,0.0186,0.0218,0.0243,0.0289,0.0406,0.0552,0.0702,0.0918,0.0921,0.0925,0.111,0.0581,0.0605,0.0663,0.0659,0.0657,0.0655,0.0654,0.0264,0.0263,0.03,0.0345,0.0476,0.0641,0.0809,0.1197,0.1379,0.154,0.1623,0.1171,0.1262,0.1237,0.1279,0.1509,0.1509,0.1509,0.151,0.0327,0.0324,0.0379,0.0459,0.0615,0.0754,0.1126,0.1445,0.1854,0.206,0.2069,0.1982,0.1939,0.2062,0.2018,0.2071,0.2498,0.2499,0.25,0.0389,0.038,0.0432,0.0479,0.065,0.0878,0.1163,0.1506,0.2199,0.2546,0.2278,0.2236,0.2093,0.2012,0.2177,0.2102,0.2177,0,0]},{"header":{"parameterUnit":"m.s-1","parameterCategory":2,"la1":30.2992,"la2":30.254,"lo1":-89.0895,"lo2":-89.0443,"dy":0.0025,"dx":0.0025,"nx":19,"ny":19,"refTime":"2026-05-18T21:00:00:Z","depth":"0","parameterNumber":3,"parameterNumberName":"V-component_of_CURRENTS"},"data":[0,0,0,-0.0356,-0.0356,-0.0357,-0.0357,-0.0372,-0.0372,0,0,0,0,0,0,0,0,0,0,0,-0.0356,-0.0356,-0.0356,-0.0356,-0.0357,-0.0357,-0.0372,-0.0372,0,0,0,0,0,0,0,0,0,0,0,-0.0356,-0.0356,-0.0356,-0.0356,-0.0357,-0.0357,-0.0372,-0.0368,0,0,0,0,0,0,0,0,0,0,-0.0365,-0.0367,-0.0356,-0.0356,-0.0356,-0.0357,-0.0357,-0.0367,-0.0368,-0.0376,0,-0.0377,0,-0.0376,-0.0374,-0.0374,0,0,0,-0.0354,-0.0366,-0.0363,-0.0356,-0.0356,-0.0357,-0.0356,-0.0367,-0.0368,-0.0377,-0.0377,-0.0378,-0.0376,-0.0374,-0.0374,-0.041,-0.0411,0,0,-0.0354,-0.0359,-0.0362,-0.0364,-0.0358,-0.0356,-0.0356,-0.0368,-0.0372,-0.0377,-0.0378,-0.0377,-0.0374,-0.0374,-0.041,-0.041,0,0,0,-0.0355,-0.0359,-0.0356,-0.0363,-0.0363,-0.0356,-0.0356,-0.0371,-0.0369,-0.0378,-0.0377,-0.0374,-0.0375,-0.041,-0.041,-0.0391,0,0,0,-0.0355,-0.036,-0.0356,-0.0359,-0.0362,-0.0366,-0.0359,-0.0368,-0.0369,-0.0377,-0.0374,-0.0375,-0.041,-0.041,-0.0391,-0.0265,0,0,0,-0.0355,-0.036,-0.0359,-0.0359,-0.036,-0.0366,-0.0364,-0.0368,-0.0369,-0.0374,-0.0375,-0.0409,-0.041,-0.0391,-0.0269,-0.0045,0,0,0,-0.0361,-0.0362,-0.036,-0.0362,-0.036,-0.0361,-0.0364,-0.0368,-0.0373,-0.0374,-0.041,-0.041,-0.0391,-0.0272,-0.0051,0.0167,0.0211,0,0,-0.0364,-0.0363,-0.0363,-0.0361,-0.0359,-0.0361,-0.037,-0.0378,-0.0386,-0.0406,-0.0407,-0.0391,-0.0269,-0.0046,0.0134,0.0181,0,0,0,-0.0365,-0.0365,-0.0364,-0.0364,-0.0363,-0.0348,-0.0377,-0.0387,-0.04,-0.0391,-0.0408,-0.0329,-0.0188,-0.0073,-0.0038,-0.016,-0.0413,-0.0413,-0.0413,-0.0362,-0.0363,-0.0358,-0.036,-0.0356,-0.0357,-0.034,-0.0358,-0.0406,-0.0415,-0.0332,-0.0161,-0.005,-0.0017,-0.0154,-0.0415,-0.0415,-0.0415,-0.0415,-0.0349,-0.0334,-0.034,-0.0331,-0.0318,-0.0309,-0.0296,-0.0312,-0.0212,-0.0331,-0.0198,-0.0083,0.0025,-0.0135,-0.0414,-0.0414,-0.0414,-0.0414,-0.0414,-0.033,-0.0319,-0.0322,-0.0286,-0.0214,-0.019,0.0036,-0.0008,-0.0083,-0.0006,0.0262,0.0264,0.016,0.0102,0.0104,0.0105,0.0107,0.0108,0.0109,-0.029,-0.0295,-0.0226,-0.0188,-0.0058,0.0139,0.0302,0.044,0.0522,0.0416,0.0417,0.0211,0.0002,0.0023,0.0131,0.0127,0.0124,0.0122,0.0121,-0.0225,-0.0226,-0.0081,0.0043,0.0369,0.0709,0.0824,0.1112,0.1181,0.1256,0.0734,0.0652,0.0732,0.0701,0.0741,0.1031,0.1031,0.1031,0.1031,-0.0158,-0.0164,0.0144,0.0455,0.0796,0.1035,0.1507,0.1624,0.1408,0.1215,0.1029,0.0839,0.0807,0.0875,0.0842,0.0877,0.1194,0.1194,0.1193,-0.0076,0.0021,0.0321,0.0616,0.1053,0.1393,0.1784,0.1927,0.1518,0.1172,0.0816,0.081,0.0482,0.0443,0.0499,0.0462,0.0501,0,0]}],[{"header":{"parameterUnit":"m.s-1","parameterCategory":2,"la1":30.2992,"la2":30.254,"lo1":-89.0895,"lo2":-89.0443,"dy":0.0025,"dx":0.0025,"nx":19,"ny":19,"refTime":"2026-05-18T21:00:00:Z","depth":"2","parameterNumber":2,"parameterNumberName":"U-component_of_CURRENTS"},"data":[0,0,0,0.0473,0.0474,0.0496,0.0496,0.0523,0.0523,0,0,0,0,0,0,0,0,0,0,0,0.0462,0.0462,0.0473,0.0474,0.0496,0.0496,0.0523,0.0523,0,0,0,0,0,0,0,0,0,0,0,0.0462,0.0462,0.0462,0.0474,0.0496,0.0496,0.0523,0.0507,0,0,0,0,0,0,0,0,0,0,0.0486,0.0469,0.0462,0.0462,0.0474,0.0496,0.0496,0.0507,0.0508,0.0512,0,0.051,0,0.0518,0.0525,0.0525,0,0,0,0.0477,0.0468,0.048,0.0462,0.0474,0.0496,0.0487,0.0508,0.051,0.0514,0.0511,0.0512,0.0518,0.0525,0.0525,0.0531,0.0531,0,0,0.0476,0.0463,0.0478,0.0481,0.0474,0.0486,0.0488,0.0509,0.0505,0.0511,0.0513,0.0518,0.0525,0.0525,0.0531,0.0531,0,0,0,0.047,0.0461,0.0473,0.0479,0.0484,0.0487,0.0488,0.0504,0.0509,0.0513,0.0519,0.0525,0.0525,0.0532,0.0531,0.0514,0,0,0,0.0469,0.0458,0.0472,0.0464,0.0483,0.0493,0.0483,0.0507,0.051,0.0519,0.0525,0.0526,0.0532,0.0531,0.0514,0.0551,0,0,0,0.0462,0.0457,0.046,0.0463,0.0473,0.0493,0.0499,0.0508,0.0513,0.0525,0.0526,0.0532,0.0532,0.0515,0.0551,0.0728,0,0,0,0.045,0.0426,0.0459,0.0446,0.0472,0.0487,0.0499,0.0507,0.0515,0.0525,0.0532,0.0531,0.0515,0.0551,0.0725,0.0869,0.0896,0,0,0.0409,0.0421,0.0417,0.0447,0.0456,0.0485,0.0487,0.05,0.0513,0.0525,0.0526,0.0514,0.0551,0.0727,0.0856,0.0883,0,0,0,0.0398,0.0388,0.0405,0.0414,0.0447,0.0473,0.0482,0.0498,0.0507,0.0516,0.0514,0.054,0.0652,0.0731,0.0752,0.053,0.053,0.053,0.053,0.0331,0.0354,0.0357,0.0386,0.0403,0.0451,0.0478,0.0495,0.0498,0.0498,0.0523,0.0643,0.0719,0.0739,0.0497,0.0497,0.0497,0.0497,0.0497,0.0313,0.0337,0.0341,0.0355,0.0391,0.0405,0.0462,0.0477,0.0579,0.0515,0.0626,0.0702,0.0762,0.0496,0.0496,0.0496,0.0496,0.0496,0.0496,0.0332,0.0343,0.0343,0.0373,0.0401,0.0442,0.058,0.0601,0.0611,0.0668,0.0894,0.0896,0.072,0.0775,0.0776,0.0777,0.0777,0.0778,0.0778,0.0384,0.0374,0.0411,0.0428,0.0476,0.0585,0.0707,0.0812,0.0948,0.0942,0.0945,0.0741,0.0732,0.0741,0.0792,0.079,0.0788,0.0787,0.0786,0.0446,0.0449,0.0518,0.0564,0.0687,0.0839,0.0944,0.1184,0.1304,0.1393,0.1135,0.1122,0.1187,0.1169,0.1191,0.1358,0.1358,0.1358,0.1358,0.0508,0.0504,0.0631,0.0735,0.0874,0.0971,0.1211,0.1342,0.1428,0.1408,0.1404,0.1293,0.1271,0.1332,0.1311,0.1332,0.1535,0.1535,0.1535,0.0572,0.0603,0.0713,0.0793,0.0948,0.1104,0.126,0.1347,0.1442,0.1528,0.1295,0.1397,0.1219,0.119,0.1268,0.124,0.1267,0,0]},{"header":{"parameterUnit":"m.s-1","parameterCategory":2,"la1":30.2992,"la2":30.254,"lo1":-89.0895,"lo2":-89.0443,"dy":0.0025,"dx":0.0025,"nx":19,"ny":19,"refTime":"2026-05-18T21:00:00:Z","depth":"2","parameterNumber":3,"parameterNumberName":"V-component_of_CURRENTS"},"data":[0,0,0,-0.0391,-0.0391,-0.0402,-0.0402,-0.0433,-0.0434,0,0,0,0,0,0,0,0,0,0,0,-0.0386,-0.0387,-0.0391,-0.0391,-0.0402,-0.0402,-0.0433,-0.0434,0,0,0,0,0,0,0,0,0,0,0,-0.0386,-0.0386,-0.0387,-0.0391,-0.0402,-0.0402,-0.0433,-0.0421,0,0,0,0,0,0,0,0,0,0,-0.0408,-0.0406,-0.0386,-0.0387,-0.0391,-0.0402,-0.0402,-0.042,-0.0421,-0.0433,0,-0.0434,0,-0.0436,-0.0436,-0.0436,0,0,0,-0.0391,-0.0404,-0.0403,-0.0387,-0.0392,-0.0402,-0.0397,-0.0421,-0.0422,-0.0435,-0.0435,-0.0436,-0.0436,-0.0436,-0.0436,-0.0469,-0.0469,0,0,-0.039,-0.0394,-0.0402,-0.0404,-0.0394,-0.0397,-0.0398,-0.0421,-0.0426,-0.0435,-0.0436,-0.0437,-0.0437,-0.0437,-0.0469,-0.0469,0,0,0,-0.0389,-0.0393,-0.0391,-0.0403,-0.0404,-0.0397,-0.0398,-0.0425,-0.0423,-0.0437,-0.0437,-0.0437,-0.0437,-0.0469,-0.0469,-0.0432,0,0,0,-0.0388,-0.0392,-0.0391,-0.0393,-0.0404,-0.0414,-0.0402,-0.0422,-0.0424,-0.0437,-0.0437,-0.0438,-0.0469,-0.0469,-0.0432,-0.0376,0,0,0,-0.0386,-0.0392,-0.0392,-0.0393,-0.0398,-0.0414,-0.0413,-0.0422,-0.0425,-0.0436,-0.0438,-0.0469,-0.0469,-0.0433,-0.0379,-0.033,0,0,0,-0.039,-0.0391,-0.0392,-0.039,-0.0398,-0.0393,-0.0413,-0.042,-0.0428,-0.0437,-0.0469,-0.0469,-0.0433,-0.0381,-0.0333,-0.0386,-0.038,0,0,-0.0392,-0.0391,-0.0387,-0.0388,-0.0376,-0.0391,-0.0388,-0.0413,-0.0437,-0.0462,-0.0463,-0.0432,-0.0379,-0.0331,-0.0398,-0.0391,0,0,0,-0.0387,-0.0386,-0.038,-0.0376,-0.0372,-0.0367,-0.0395,-0.0407,-0.0431,-0.0443,-0.0447,-0.0414,-0.0385,-0.0423,-0.0418,-0.047,-0.047,-0.047,-0.047,-0.0381,-0.0377,-0.0367,-0.0363,-0.0359,-0.0361,-0.0356,-0.0382,-0.0416,-0.0427,-0.0396,-0.0346,-0.0389,-0.0385,-0.0432,-0.0432,-0.0432,-0.0432,-0.0432,-0.0359,-0.0347,-0.035,-0.034,-0.0334,-0.0328,-0.0328,-0.0343,-0.0327,-0.0376,-0.0351,-0.0397,-0.0378,-0.0429,-0.043,-0.043,-0.043,-0.0431,-0.0431,-0.0339,-0.0335,-0.0335,-0.0314,-0.0284,-0.0274,-0.022,-0.0229,-0.0267,-0.0243,-0.028,-0.0282,-0.0286,-0.0234,-0.0233,-0.0233,-0.0232,-0.0232,-0.0232,-0.0308,-0.0312,-0.0284,-0.0265,-0.0231,-0.0173,-0.013,-0.0128,-0.0165,-0.0212,-0.0214,-0.0278,-0.0284,-0.0275,-0.0225,-0.0226,-0.0227,-0.0228,-0.0228,-0.0264,-0.0272,-0.0227,-0.0198,-0.0108,-0.0057,-0.0041,-0.0074,-0.0067,-0.0108,-0.0205,-0.0208,-0.0212,-0.0218,-0.0208,-0.0143,-0.0143,-0.0143,-0.0143,-0.0226,-0.0231,-0.0153,-0.0086,-0.0006,0.0011,0.0045,0.007,-0.0011,-0.0047,-0.005,-0.0121,-0.0128,-0.013,-0.0139,-0.0128,-0.0041,-0.0041,-0.004,-0.0173,-0.0173,-0.0096,-0.0049,0.0048,0.0053,0.0092,0.0203,0.0107,-0.0028,0.0055,-0.0153,-0.0273,-0.0277,-0.0298,-0.0305,-0.0295,0,0]}],[{"header":{"parameterUnit":"m.s-1","parameterCategory":2,"la1":30.2992,"la2":30.254,"lo1":-89.0895,"lo2":-89.0443,"dy":0.0025,"dx":0.0025,"nx":19,"ny":19,"refTime":"2026-05-18T21:00:00:Z","depth":"4","parameterNumber":2,"parameterNumberName":"U-component_of_CURRENTS"},"data":[0,0,0,0.0631,0.0634,0.0775,0.0776,0.0863,0.0863,0,0,0,0,0,0,0,0,0,0,0,0.0584,0.0586,0.063,0.0634,0.0775,0.0776,0.0863,0.0863,0,0,0,0,0,0,0,0,0,0,0,0.0584,0.0585,0.0587,0.0635,0.0775,0.0776,0.0863,0.0779,0,0,0,0,0,0,0,0,0,0,0.0653,0.063,0.0585,0.0587,0.0635,0.0775,0.0776,0.0776,0.0784,0.0773,0,0.0806,0,0.0835,0.0867,0.0868,0,0,0,0.0632,0.0623,0.0656,0.0587,0.0637,0.0775,0.0711,0.0781,0.079,0.0783,0.0807,0.0811,0.0837,0.0868,0.0868,0.1001,0.1002,0,0,0.0624,0.0611,0.0651,0.0663,0.0686,0.0706,0.0715,0.0788,0.0803,0.0808,0.0814,0.0838,0.0868,0.0869,0.1001,0.1002,0,0,0,0.0603,0.0606,0.064,0.0658,0.0691,0.071,0.0721,0.08,0.0811,0.0815,0.0839,0.0868,0.0869,0.0999,0.1001,0.0995,0,0,0,0.0598,0.0594,0.0636,0.063,0.0691,0.0761,0.0731,0.0806,0.0815,0.0839,0.0869,0.087,0.0998,0.1,0.0993,0.095,0,0,0,0.0576,0.0591,0.0611,0.0629,0.0691,0.0761,0.0777,0.0809,0.0829,0.0868,0.087,0.0997,0.1,0.0991,0.0949,0.1006,0,0,0,0.0552,0.0588,0.0611,0.066,0.0689,0.0778,0.0777,0.0839,0.0874,0.0869,0.0998,0.1001,0.099,0.0948,0.1005,0.0897,0,0,0,0.0578,0.0591,0.0618,0.0641,0.072,0.0757,0.0854,0.0891,0.0909,0.0964,0.0969,0.0993,0.0949,0.1006,0.1043,0,0,0,0,0.0612,0.0634,0.0664,0.0716,0.0779,0.0855,0.091,0.0948,0.1011,0.0945,0.1045,0.1017,0.1053,0.0989,0.1013,0.1012,0.1012,0.1012,0.1012,0.0619,0.0651,0.0701,0.0761,0.0828,0.0925,0.0982,0.1047,0.1054,0.1097,0.1052,0.1139,0.1076,0.112,0.112,0.112,0.112,0.112,0.112,0.0642,0.0661,0.072,0.0787,0.087,0.0951,0.1047,0.1069,0.1139,0.1127,0.1165,0.1036,0.1121,0.1121,0.112,0.112,0.112,0.112,0.112,0.0625,0.0638,0.0694,0.079,0.0871,0.0957,0.1018,0.107,0.1111,0.113,0.1099,0.1149,0.1105,0.1163,0.1163,0.1163,0.1163,0.1163,0.1163,0.0583,0.0634,0.0691,0.0794,0.0849,0.0914,0.1002,0.1037,0.1086,0.1068,0.1123,0.1154,0.1152,0.111,0.1165,0.1165,0.1165,0.1164,0.1164,0.0565,0.06,0.0682,0.0747,0.0849,0.0885,0.0975,0.1017,0.1066,0.1064,0.1071,0.1076,0.1067,0.1068,0.1021,0.1052,0.1051,0.105,0,0.0547,0.0566,0.0679,0.0753,0.0806,0.0865,0.088,0.0935,0.0986,0.0957,0.1064,0.107,0.1072,0.1061,0.106,0.1005,0,0,0,0.0546,0.0587,0.0655,0.0734,0.0783,0.081,0.0879,0.0881,0.0971,0.0982,0.102,0.1028,0.1116,0.117,0.1167,0.1165,0.1097,0,0]},{"header":{"parameterUnit":"m.s-1","parameterCategory":2,"la1":30.2992,"la2":30.254,"lo1":-89.0895,"lo2":-89.0443,"dy":0.0025,"dx":0.0025,"nx":19,"ny":19,"refTime":"2026-05-18T21:00:00:Z","depth":"4","parameterNumber":3,"parameterNumberName":"V-component_of_CURRENTS"},"data":[0,0,0,0.0198,0.0196,0.0072,0.0072,-0.0019,-0.002,0,0,0,0,0,0,0,0,0,0,0,0.0233,0.0233,0.0198,0.0196,0.0073,0.0072,-0.0019,-0.002,0,0,0,0,0,0,0,0,0,0,0,0.0233,0.0233,0.0232,0.0196,0.0073,0.0071,-0.0019,0.0051,0,0,0,0,0,0,0,0,0,0,0.0159,0.0192,0.0233,0.0232,0.0195,0.0073,0.0071,0.0053,0.0046,0.0065,0,0.0056,0,0.0034,-0.0022,-0.0022,0,0,0,0.0167,0.0197,0.0172,0.0232,0.0195,0.0073,0.012,0.0048,0.0041,0.0057,0.0054,0.0051,0.0033,-0.0022,-0.0022,0.0036,0.0037,0,0,0.0174,0.02,0.0177,0.0168,0.0178,0.0124,0.0117,0.0043,0.004,0.0054,0.0048,0.0031,-0.0022,-0.0022,0.0036,0.0037,0,0,0,0.0213,0.0205,0.0179,0.0172,0.0154,0.0122,0.0113,0.0042,0.0036,0.0047,0.003,-0.0022,-0.0022,0.0035,0.0036,0.0051,0,0,0,0.0216,0.023,0.0183,0.0195,0.0156,0.0088,0.0114,0.004,0.0031,0.0031,-0.0022,-0.0023,0.0034,0.0035,0.0049,0.0022,0,0,0,0.0236,0.0232,0.0223,0.0197,0.0158,0.0089,0.0075,0.0036,0.0023,-0.0022,-0.0023,0.0033,0.0035,0.0046,0.002,-0.0062,0,0,0,0.0257,0.0254,0.0224,0.0224,0.0159,0.0135,0.0075,0.0026,-0.0011,-0.0022,0.0034,0.0036,0.0046,0.0018,-0.0061,0.0011,0,0,0,0.0266,0.0255,0.0258,0.023,0.0234,0.0149,0.0163,0.0074,0.0034,0.0056,0.0056,0.0049,0.002,-0.0062,0.0132,0,0,0,0,0.0271,0.0271,0.0268,0.0263,0.0239,0.0203,0.0143,0.0131,0.0092,0.0028,0.0087,0.0068,0.0015,0.0062,0.0046,0.0046,0.0045,0.0045,0.0045,0.0291,0.0294,0.0304,0.0301,0.029,0.0249,0.0217,0.0194,0.0163,0.016,0.0109,0.0096,0.0157,0.016,0.0161,0.0161,0.0161,0.0161,0.0161,0.0301,0.0298,0.0321,0.0315,0.0308,0.0296,0.0282,0.0242,0.0189,0.0192,0.0139,0.0116,0.0163,0.0163,0.0163,0.0162,0.0162,0.0162,0.0162,0.0287,0.0287,0.0288,0.0289,0.0273,0.0255,0.0217,0.0171,0.0158,0.012,0.0084,0.0072,0.003,0.0051,0.0051,0.005,0.005,0.005,0.0049,0.0251,0.0268,0.0242,0.0237,0.0205,0.0154,0.0112,0.0094,0.0052,0.0084,0.0068,0.0057,0.0061,0.0023,0.0043,0.0044,0.0045,0.0045,0.0046,0.0207,0.0207,0.0163,0.0133,0.0093,0.008,0.0041,0.0048,0.0004,0.0006,0.006,0.0061,0.0033,0.0036,-0.0004,0.0007,0.0008,0.0009,0,0.0166,0.0171,0.0098,0.005,0.0035,0.0036,0.0066,0.0062,0.0032,0.0042,-0.0026,0.0033,0.0036,0.0004,0.0008,-0.0038,0,0,0,0.0131,0.0104,0.004,0.0014,0.0008,0.0061,0.0078,0.0093,0.0044,0.007,0.0031,0.0025,0.0071,0.0023,-0.002,-0.0016,-0.008,0,0]}]]